This is the latest recevied weather packets stored in our database for station/object EMGATE. If no packets are shown the sender has not sent any weather packets the latest 10 day(s).
| Time | Temp. | Humidity | Pressure | Rain* | Wind** | Luminosity | Snow |
|---|---|---|---|---|---|---|---|
| 1777457342 | 9.44° C | 58% | 1013.2 hPa | 0 mm | - | - | - |
| 1777456442 | 8.89° C | 58% | 1013.1 hPa | 0 mm | - | - | - |
| 1777455542 | 8.89° C | 58% | 1013.1 hPa | 0 mm | - | - | - |
| 1777454642 | 8.89° C | 58% | 1012.9 hPa | 0 mm | - | - | - |
| 1777453742 | 9.44° C | 58% | 1012.8 hPa | 0 mm | - | - | - |
| 1777452842 | 10° C | 58% | 1012.8 hPa | 0 mm | - | - | - |
| 1777451942 | 10° C | 58% | 1012.8 hPa | 0 mm | - | - | - |
| 1777451042 | 10.56° C | 59% | 1012.8 hPa | 0 mm | - | - | - |
| 1777450142 | 11.11° C | 58% | 1013 hPa | 0 mm | - | - | - |
| 1777449242 | 11.11° C | 57% | 1013 hPa | 0 mm | - | - | - |
| 1777448342 | 11.67° C | 55% | 1013 hPa | 0 mm | - | - | - |
| 1777447442 | 12.22° C | 55% | 1013 hPa | 0 mm | - | - | - |
| 1777446542 | 12.22° C | 54% | 1013 hPa | 0 mm | - | - | - |
| 1777445642 | 12.78° C | 54% | 1013.1 hPa | 0 mm | - | - | - |
| 1777444742 | 12.78° C | 53% | 1013.2 hPa | 0 mm | - | - | - |
| 1777443842 | 13.33° C | 53% | 1013.1 hPa | 0 mm | - | - | - |
| 1777442942 | 13.33° C | 54% | 1013.1 hPa | 0 mm | - | - | - |
| 1777442042 | 13.33° C | 54% | 1013.1 hPa | 0 mm | - | - | - |
| 1777441142 | 13.89° C | 53% | 1013 hPa | 0 mm | - | - | - |
| 1777440242 | 13.89° C | 52% | 1012.8 hPa | 0 mm | - | - | - |
| 1777439342 | 14.44° C | 50% | 1012.7 hPa | 0 mm | - | - | - |
| 1777438442 | 14.44° C | 49% | 1012.5 hPa | 0 mm | - | - | - |
| 1777437542 | 15° C | 49% | 1012.4 hPa | 0 mm | - | - | - |
| 1777436642 | 15° C | 48% | 1012.2 hPa | 0 mm | - | - | - |
| 1777435742 | 15° C | 47% | 1012.2 hPa | 0 mm | - | - | - |
* Rain latest hour (hover to see other rain measurements)
** Current wind speed in m/s (hover to see current wind gust speed)